Weather in Dar-Nadezhda

Ukraine / Kharkiv Region     49°09′06″N   35°44′52″E
temp.,
°C
wind,
m/s
gust,
m/s
humid.,
%
clouds,
%
prec.,
mm/h
press.,
hPa
HPBL,
m
15 june, tue
tue1500:00+18ne33801 0.0 101331
03:00+17ne34870 0.0 101247
06:00+17ne36880 0.0 1012142
09:00+22ne45720 0.3 1012419
12:00+25ene44551 0.7 10111398
15:00+26ne435599 0.8 10101796
18:00+23ne347330 0.7 1009147
21:00+19ene3387100 1.5 101042
16 june, wed
wed1600:00+18ene3492100 1.6 101069
03:00+18e2289100 2.3 100920
06:00+18e2289100 0.1 101057
09:00+22se237786 0.5 1011402
12:00+25se236261 2.3 10111142
15:00+27ese335516 2.3 10111749
18:00+27e24612 0.0 10111815
21:00+20ne46820 0.2 101287
17 june, thu
thu1700:00+19ne41190100 0.0 1013215
03:00+19ne51188100 0.0 1013256
06:00+19ne71489100 0.0 1013421
09:00+22ene71383100 0.0 1015742
12:00+26ene7865100 0.0 10161476
15:00+27ene686249 0.2 10151785
18:00+24e6980100 3.1 1017890
21:00+19se4794100 7.4 1019220
18 june, fri
fri1800:00+18ne349744 0.6 101996
03:00+18ene613949 0.6 1020452
06:00+17ene51192100 0.0 1021391
09:00+18ene598863 0.0 1022477
12:00+21e587899 0.0 10221020
15:00+23e697386 0.1 10221191
18:00+22ene6107499 0.2 1022749
21:00+19ene4118199 0.3 1023278
19 june, sat
sat1900:00+17ene4118787 0.0 1023244
03:00+16ene5118698 0.0 1023239
06:00+16e5138128 0.0 1024324
09:00+20e7117073 0.0 1024539
12:00+24e810585 0.0 10231023
15:00+25e79570 0.0 10231255
18:00+23ene69680 0.0 1022953
21:00+18ene411844 0.0 1022249